Location: Shepherdstown, WV
(39.4326°N, 77.8042°W)
Time: 18:29:25
(UTC-04:00)

Vanguard 3 - Pass Details

Date: 29 July 2021
Orbit: 510 x 3260 km, 33.3° (Epoch: 18 September)

Event Time Altitude Azimuth Distance (km) Brightness Sun altitude
Rises 03:38:26 0° 279° (W) 7,006 11.7 -23.3°
Reaches altitude 10° 03:46:31 10° 261° (W) 5,558 11.0 -22.3°
Enters shadow 03:46:53 10° 260° (W) 5,497 10.9 -22.3°
